Caldwell, NJ

11:28 PM EST on November 19, 2019 (GMT -0500)
Essex County

Weather History for KCDW - October, 2019

Change the Weather History Date:

Monday, October 21, 2019

  Actual Average Record
Temperature  
Mean Temperature 58 °F -  
Max Temperature 70 °F 62 °F 79 °F (1969)
Min Temperature 48 °F 37 °F 22 °F (1972)
Degree Days  
Heating Degree Days 6    
Growing Degree Days 8 (Base 50)    
Moisture  
Dew Point 48 °F    
Average Humidity 76    
Maximum Humidity 93    
Minimum Humidity 42    
Precipitation  
Precipitation 0.01 in - - ()
Sea Level Pressure  
Sea Level Pressure 30.08 in    
Wind  
Wind Speed 2 mph ()    
Max Wind Speed 8 mph    
Max Gust Speed -    
Visibility 9.6 miles    
Events Rain    
Averages and records for this station are not official NWS values.
T = Trace of Precipitation, MM = Missing Value Source: Averaged Metar Reports

Daily Weather History Graph

Daily Weather History Graph

Search for Another Location

Airport or City:

Astronomy

Oct. 21, 2019 Rise Set
Actual Time 7:14 AM EDT 6:08 PM EDT
Civil Twilight 6:46 AM EDT 6:35 PM EDT
Nautical Twilight 6:14 AM EDT 7:07 PM EDT
Astronomical Twilight 5:43 AM EDT 7:39 PM EDT
Moon No Moon Rise 2:32 PM EDT (10/21)
Length of Visible Light 11h 49m
Length of Day
10h 53m
Waning Gibbous, 48% of the Moon is Illuminated
Oct 21
Waning Gibbous
Oct 27
New
Nov 4
First Quarter
Nov 12
Full
Nov 19
Last Quarter

Hourly Weather History & Observations

Time (EDT) Temp. Dew Point Humidity Pressure Visibility Wind Dir Wind Speed Gust Speed Precip Events Conditions
12:53 AM 53.1 °F 50.0 °F 89% 30.01 in 10.0 mi NNE 4.6 mph - 0.01 in Rain Light Rain
1:48 AM 53.6 °F 50.0 °F 88% 30.00 in 10.0 mi Calm Calm - 0.00 in   Mostly Cloudy
1:53 AM 53.1 °F 50.0 °F 89% 30.02 in 10.0 mi Calm Calm - 0.00 in   Mostly Cloudy
2:53 AM 51.1 °F 48.9 °F 92% 30.02 in 9.0 mi NE 3.5 mph - N/A   Scattered Clouds
3:53 AM 50.0 °F 48.0 °F 93% 30.02 in 9.0 mi Variable 3.5 mph - N/A   Clear
4:53 AM 50.0 °F 48.0 °F 93% 30.03 in 9.0 mi ENE 3.5 mph - N/A   Clear
5:53 AM 50.0 °F 46.9 °F 89% 30.05 in 10.0 mi Variable 3.5 mph - N/A   Clear
6:53 AM 48.9 °F 46.9 °F 93% 30.07 in 8.0 mi ENE 3.5 mph - N/A   Clear
7:53 AM 50.0 °F 46.9 °F 89% 30.08 in 7.0 mi ENE 3.5 mph - N/A   Clear
8:53 AM 53.1 °F 48.9 °F 86% 30.10 in 9.0 mi Variable 3.5 mph - N/A   Clear
9:53 AM 55.9 °F 48.0 °F 75% 30.10 in 10.0 mi Variable 3.5 mph - N/A   Clear
10:53 AM 60.1 °F 48.0 °F 64% 30.10 in 10.0 mi NNW 8.1 mph - N/A   Clear
11:53 AM 63.0 °F 46.9 °F 56% 30.10 in 10.0 mi Variable 5.8 mph - N/A   Clear
12:53 PM 64.9 °F 48.0 °F 54% 30.09 in 10.0 mi Variable 5.8 mph - N/A   Clear
1:53 PM 68.0 °F 44.1 °F 42% 30.07 in 10.0 mi Variable 3.5 mph - N/A   Clear
3:53 PM 69.1 °F 45.0 °F 42% 30.08 in 10.0 mi Calm Calm - N/A   Clear
4:53 PM 69.1 °F 45.0 °F 42% 30.09 in 10.0 mi NE 3.5 mph - N/A   Clear
5:53 PM 64.0 °F 46.0 °F 52% 30.10 in 10.0 mi Calm Calm - N/A   Clear
6:53 PM 57.9 °F 46.9 °F 67% 30.12 in 10.0 mi Calm Calm - N/A   Clear
7:53 PM 55.0 °F 46.9 °F 74% 30.13 in 10.0 mi Calm Calm - N/A   Clear
8:53 PM 53.1 °F 48.0 °F 83% 30.15 in 10.0 mi Calm Calm - N/A   Clear
9:53 PM 51.1 °F 48.0 °F 89% 30.14 in 10.0 mi East 3.5 mph - N/A   Clear
10:53 PM 51.1 °F 48.0 °F 89% 30.15 in 10.0 mi Calm Calm - N/A   Clear
11:53 PM 50.0 °F 48.0 °F 93% 30.15 in 10.0 mi Calm Calm - N/A   Clear